Content
SEND FEEDBACK

Daily
Averages
Monthly
Summary
United States of America

WRIGHTSVILLE BEACH, NORTH CAROLINA


Home > North America > United States > North Carolina
Elevation: 25 feet     Latitude: 34 16N     Longitude: 077 54W

WEATHER
 
SELECT A DAY
Number of Records: 212,513;   Date Range: 1/1/95 - 10/29/14
 
SHARE

PRINT THIS DATA

[ ← Previous Day ]
WEATHER ALMANAC - FEBRUARY 4, 2013
[ Next Day → ]
[ °C ]   °F
Weather ElementAverageHighLow
Temperature41.3 °F48.9 °F (12:53 pm)28 °F (6:53 am)
Dewpoint27.7 °F36 °F (11:53 pm)21.9 °F (10:53 am)
Humidity61.7 %92 % (2:53 am)36 % (12:53 pm)
Barometer30.10 in30.17 in (9:53 am)30.03 in (1:53 am)
Wind Speed2.6 mph6.9 mph (12:21 pm)
Weather ElementAverage
Visibility10 mi
Wind DirectionE (90.9 °)

Weather ElementTotal
Precipitation---
Heating Degree Days26.6 (Base 65)
Averaged from 23 records on February 4, 2013
WEATHER CONDITIONS BREAKOUT
WIND DIRECTION BREAKOUT
WEATHER BY HOUR - FEBRUARY 4, 2013
[ °C ]   °F
Local TimeTemperatureDewpointHumidityBarometerVisibilityWind DirectionWind SpeedGust SpeedPrecipitationEventsConditions
1:53 AM33.1 °F28.0 °F82 %30.03 in10.0 miCalmClear
2:53 AM30.9 °F28.9 °F92 %30.04 in10.0 miCalmClear
3:53 AM30.9 °F27.0 °F85 %30.05 in10.0 miCalmClear
5:53 AM28.4 °F24.8 °F86 %30.09 in10.0 miCalmClear
6:53 AM28.0 °F24.1 °F85 %30.10 in10.0 miNorth (360°)3.5 mphClear
7:53 AM32.0 °F27.0 °F82 %30.12 in10.0 miNNE (30°)3.5 mphClear
8:53 AM39.9 °F28.0 °F63 %30.15 in10.0 miNE (50°)5.8 mphClear
9:53 AM44.1 °F24.1 °F45 %30.17 in10.0 miNNE (20°)4.6 mphClear
10:53 AM46.0 °F21.9 °F39 %30.16 in10.0 miCalmClear
11:53 AM48.0 °F23.0 °F37 %30.14 in10.0 miNorth (350°)5.8 mphClear
12:21 PM48.2 °F23.0 °F37 %30.14 in10.0 miWest (270°)6.9 mphClear
12:53 PM48.9 °F23.0 °F36 %30.12 in10.0 miCalmClear
1:53 PM48.9 °F23.0 °F36 %30.11 in10.0 miWest (280°)5.8 mphClear
2:53 PM48.9 °F23.0 °F36 %30.09 in10.0 miCalmClear
3:53 PM46.0 °F28.0 °F50 %30.08 in10.0 miSSE (150°)6.9 mphClear
4:53 PM46.0 °F28.9 °F51 %30.09 in10.0 miSouth (170°)5.8 mphClear
5:53 PM44.1 °F30.9 °F60 %30.10 in10.0 miSouth (170°)6.9 mphClear
6:53 PM44.1 °F30.9 °F60 %30.09 in10.0 miCalmClear
7:53 PM44.1 °F32.0 °F63 %30.08 in10.0 miCalmClear
8:53 PM43.0 °F33.1 °F68 %30.08 in10.0 miCalmClear
9:53 PM42.1 °F34.0 °F73 %30.07 in10.0 miCalmClear
10:53 PM42.1 °F34.0 °F73 %30.08 in10.0 miCalmClear
11:53 PM42.1 °F36.0 °F79 %30.07 in10.0 miWSW (240°)3.5 mphClear
Hourly data recorded from KILM, located miles away from Wrightsville Beach, North Carolina







STORIES FROM OUR PARTNERS